Home   Weather   Citrus Heights   Past weeks

Flag for USA Past Weather in Citrus Heights, California, USA — Yesterday and Last 2 Weeks

Now
43 °F

Low clouds.


Feels Like: 43 °F
Forecast: 41 / 50 °F
Wind: No wind

Location: Mather Field

Current Time: Jan 18, 2017 at 4:09:27 am

Latest Report: Jan 18, 2017 at 2:45 am


Visibility: 3 mi

Pressure: 30.11 "Hg

Humidity: 100%

Dew Point: 43 °F

Location of Citrus HeightsLocation

Past Weather in Citrus Heights — Graph

°F

Citrus Heights Temperature Yesterday

Maximum temperature yesterday: 48 °F (at 12:53 pm)
Minimum temperature yesterday: 32 °F (at 4:50 am)
Average temperature yesterday: 40 °F

High & Low Weather Summary for the Past Weeks

 TemperatureHumidityPressure
High63 °F (Jan 8, 6:45 am)100% (Jan 3, 4:45 am)30.26 "Hg (Jan 3, 4:45 am)
Low28 °F (Jan 6, 6:45 am)54% (Jan 5, 1:45 pm)29.66 "Hg (Jan 10, 7:45 pm)
Average46 °F91%30.03 "Hg
* Reported Jan 3 2:55 am — Jan 18 2:45 am, Citrus Heights, Weather by CustomWeather, © 2017

Note: Actual official high and low records may vary slightly from our data, if they occured in-between our weather recording intervals... More about our weather records

Advertising

Citrus Heights Weather History for the Previous 24 Hours

Scroll right to see more
 ConditionsComfort  
Time TempWeatherWind HumidityBarometerVisibility
2:45 am
Wed, Jan 18
43 °FLow clouds.No wind100%30.11 "Hg3 mi
11:30 pm
Tue, Jan 17
41 °FOvercast.3 mph100%30.12 "Hg3 mi
9:45 pm39 °FPassing clouds.3 mph100%30.16 "Hg3 mi
8:47 pm41 °FPassing clouds.3 mph100%30.17 "Hg4 mi
7:55 pm41 °FPassing clouds.No wind100%30.16 "Hg6 mi
6:50 pm41 °FPassing clouds.3 mph93%30.16 "Hg6 mi
5:45 pm41 °FFog.6 mph100%30.16 "Hg3 mi
4:45 pm45 °FPartly sunny.8 mph87%30.15 "Hg3 mi
3:48 pm46 °FOvercast.7 mph82%30.14 "Hg7 mi
2:50 pm48 °FScattered clouds.5 mph76%30.12 "Hg5 mi
12:53 pm48 °FScattered clouds.5 mph76%30.16 "Hg5 mi
11:45 am46 °FScattered clouds.8 mph82%30.20 "Hg10 mi
10:58 am45 °FScattered clouds.5 mph81%30.20 "Hg5 mi
9:45 am41 °FFog.7 mph93%30.20 "Hg5 mi
8:45 am39 °FFog.No wind93%30.18 "Hg5 mi
7:45 am32 °FSunny.N/A100%30.14 "Hg5 mi
6:45 am32 °FIce fog.No wind100%30.16 "Hg5 mi
5:45 am32 °FIce fog.No wind100%30.15 "Hg6 mi
4:50 am32 °FClear.No wind100%30.14 "Hg8 mi
Weather by CustomWeather, © 2017

See weather overviewHow to use our weather pages